Hourly Data Report for October 04, 2017

All times are specified in Local Standard Time (LST). Add 1 hour to adjust for Daylight Saving Time where and when it is observed.

FORT CHIPEWYAN
ALBERTA

58°46'02.000" N
111°07'02.000" W
238.00 m
3072655
71305
YPY

Download Data

Hourly Data (October 2017)
Hourly Data Report for October 4, 2017
Temp Definition
°C
Dew Point Temp Definition
°C
Rel Hum Definition
%
Wind Dir Definition
10's deg

Wind Spd Definition
km/h
Visibility Definition
km
Stn Press Definition
kPa
Hmdx Definition


Wind Chill Definition


Weather Definition


TIME
00:00 Legend Double Dagger 5.9 2.4 78 32 13 16.1 99.04     LegendNANA
01:00 Legend Double Dagger 5.3 0.7 72 34 13 16.1 99.12     LegendNANA
02:00 Legend Double Dagger 5.0 0.6 73 34 9 16.1 99.21     LegendNANA
03:00 Legend Double Dagger 4.7 0.5 74 33 17 16.1 99.29     LegendNANA
04:00 Legend Double Dagger 4.5 0.2 74 36 8 16.1 99.36     LegendNANA
05:00 Legend Double Dagger 4.4 0.2 74 33 11 16.1 99.40     LegendNANA
06:00 Legend Double Dagger 4.2 0.5 77 30 5 16.1 99.44     LegendNANA
07:00 Legend Double Dagger 3.8 1.6 85 32 8 16.1 99.46     Rain
08:00 Legend Double Dagger 4.0 1.9 86 31 11 16.1 99.49     LegendNANA
09:00 Legend Double Dagger 4.8 1.5 79 31 11 16.1 99.49     LegendNANA
10:00 Legend Double Dagger 5.5 1.0 73 34 8 16.1 99.48     LegendNANA
11:00 Legend Double Dagger 6.0 2.0 76 26 15 16.1 99.47     LegendNANA
12:00 Legend Double Dagger 6.2 2.1 75 31 9 16.1 99.47     LegendNANA
13:00 Legend Double Dagger 6.7 1.3 68 27 9 16.1 99.43     LegendNANA
14:00 Legend Double Dagger 6.6 2.0 72 LegendMM 4 16.1 99.38     LegendNANA
15:00 Legend Double Dagger 7.7 1.9 67 29 5 16.1 99.33     LegendNANA
16:00 Legend Double Dagger 7.1 2.1 70 12 5 16.1 99.29     LegendNANA
17:00 Legend Double Dagger 6.0 2.3 77 12 5 16.1 99.27     LegendNANA
18:00 Legend Double Dagger 5.7 2.5 80 11 8 16.1 99.22     LegendNANA
19:00 Legend Double Dagger 5.5 2.5 81 10 8 16.1 99.18     LegendNANA
20:00 Legend Double Dagger 5.9 3.1 82 10 9 16.1 99.14     LegendNANA
21:00 Legend Double Dagger 6.1 3.1 81 11 8 16.1 99.07     LegendNANA
22:00 Legend Double Dagger 5.9 3.3 84 11 8 16.1 99.02     LegendNANA
23:00 Legend Double Dagger 5.9 3.4 84 11 9 16.1 98.95     LegendNANA

Notes on Data Quality.

Legend

  • E = Estimated
  • M = Missing
  • NA = Not Available
  • ‡ = Partner data that is not subject to review by the National Climate Archives
Date modified: